IRIDIUM 76 [-]

Last updated on Aug. 28, 2018, 2:42 p.m. UTC

1 25432U 98048B   18240.38235254  .32746209 -16288-5  24999-3 0  9992
2 25432  86.7486  71.9444 0039163 101.2964 260.8072 16.49338450 48551

Satellite is not in orbit.